• In Belarus
  • List of Countries
  • For 7 days
  • Water Temperature
  • Satellite Maps
  • Weather Map
  • Weather Widgets
  • user-avatar
    Login

    Hourly Weather Worb

    Today, 22 October, Sunday

    Time Temperature Precipitation Wind Pressure Humidity
    00:00 +10°C° 0.6 mm 2 mps 712 mmHg 93%
    01:00 +10°C° 0.6 mm 2 mps 712 mmHg 92%
    02:00 +9°C° 0.4 mm 2 mps 712 mmHg 92%
    03:00 +9°C° 0.4 mm 3 mps 712 mmHg 93%
    04:00 +9°C° 0.4 mm 3 mps 712 mmHg 93%
    05:00 +8°C° 0.3 mm 3 mps 712 mmHg 92%
    06:00 +8°C° 0.3 mm 3 mps 712 mmHg 92%
    07:00 +8°C° 0.3 mm 3 mps 712 mmHg 92%
    08:00 +8°C° 0.2 mm 3 mps 712 mmHg 88%
    09:00 +7°C° 0.2 mm 4 mps 712 mmHg 85%
    10:00 +8°C° 0.2 mm 4 mps 712 mmHg 81%
    11:00 +8°C° 0.4 mm 4 mps 712 mmHg 80%
    12:00 +8°C° 0.4 mm 4 mps 711 mmHg 80%
    13:00 +8°C° 0.4 mm 4 mps 711 mmHg 79%
    14:00 +7°C° 0.6 mm 4 mps 711 mmHg 81%
    15:00 +7°C° 0.6 mm 4 mps 711 mmHg 84%
    16:00 +7°C° 0.6 mm 3 mps 711 mmHg 86%
    17:00 +7°C° 0.6 mm 3 mps 712 mmHg 88%
    18:00 +5°C° 0.6 mm 3 mps 712 mmHg 90%
    19:00 +6°C° 0.6 mm 2 mps 713 mmHg 92%
    20:00 +6°C° 0.9 mm 2 mps 713 mmHg 93%
    21:00 +6°C° 0.9 mm 2 mps 713 mmHg 93%
    22:00 +6°C° 0.9 mm 2 mps 713 mmHg 93%
    23:00 +6°C° 0.8 mm 2 mps 713 mmHg 93%

    Tomorrow, 23 October, Monday

    Time Temperature Precipitation Wind Pressure Humidity
    00:00 +5°C° 0.8 mm 2 mps 713 mmHg 94%
    01:00 +5°C° 0.8 mm 2 mps 714 mmHg 94%
    02:00 +5°C° 1 mm 2 mps 714 mmHg 94%
    03:00 +5°C° 1 mm 2 mps 714 mmHg 94%
    04:00 +5°C° 1 mm 2 mps 714 mmHg 94%
    05:00 +5°C° 0.7 mm 2 mps 714 mmHg 94%
    06:00 +6°C° 0.7 mm 2 mps 714 mmHg 94%
    07:00 +6°C° 0.7 mm 2 mps 714 mmHg 94%
    08:00 +6°C° 0.7 mm 2 mps 714 mmHg 94%
    09:00 +7°C° 0.7 mm 2 mps 715 mmHg 93%
    10:00 +7°C° 0.7 mm 2 mps 715 mmHg 92%
    11:00 +8°C° 0.4 mm 2 mps 715 mmHg 90%
    12:00 +8°C° 0.4 mm 2 mps 715 mmHg 87%
    13:00 +9°C° 0.4 mm 2 mps 715 mmHg 85%
    14:00 +9°C° 0.3 mm 2 mps 715 mmHg 87%
    15:00 +8°C° 0.3 mm 2 mps 715 mmHg 89%
    16:00 +9°C° 0.3 mm 1 mps 715 mmHg 91%
    17:00 +8°C° 0.3 mm 1 mps 715 mmHg 92%
    18:00 +8°C° 0.3 mm 1 mps 716 mmHg 92%
    19:00 +7°C° 0.3 mm 1 mps 716 mmHg 93%
    20:00 +7°C° 0.1 mm 1 mps 716 mmHg 92%
    21:00 +7°C° 0.1 mm 1 mps 716 mmHg 92%
    22:00 +7°C° 0.1 mm 1 mps 716 mmHg 91%
    23:00 +7°C° 0.1 mm 1 mps 716 mmHg 91%

    Day after tomorrow, 24 October, Tuesday

    Time Temperature Precipitation Wind Pressure Humidity
    00:00 +7°C° 0.1 mm 1 mps 716 mmHg 91%
    01:00 +6°C° 0.1 mm 2 mps 716 mmHg 90%
    02:00 +8°C° 0.1 mm 1 mps 716 mmHg 90%
    03:00 +8°C° 0.1 mm 1 mps 716 mmHg 90%
    04:00 +8°C° 0.1 mm 1 mps 716 mmHg 90%
    05:00 +9°C° 0.2 mm 1 mps 716 mmHg 91%
    06:00 +9°C° 0.2 mm 1 mps 716 mmHg 91%
    07:00 +9°C° 0.2 mm 1 mps 716 mmHg 91%
    08:00 +10°C° 0 mm 1 mps 716 mmHg 90%
    09:00 +11°C° 0 mm 1 mps 716 mmHg 89%
    10:00 +12°C° 0 mm 1 mps 716 mmHg 87%
    11:00 +13°C° 0 mm 1 mps 716 mmHg 84%
    12:00 +14°C° 0 mm 1 mps 716 mmHg 81%
    13:00 +16°C° 0 mm 1 mps 717 mmHg 78%
    14:00 +15°C° 0 mm 1 mps 716 mmHg 79%
    15:00 +15°C° 0 mm 1 mps 716 mmHg 81%
    16:00 +15°C° 0 mm 1 mps 716 mmHg 82%
    17:00 +13°C° 0 mm 1 mps 716 mmHg 86%
    18:00 +11°C° 0 mm 1 mps 716 mmHg 89%
    19:00 +10°C° 0 mm 1 mps 716 mmHg 93%
    20:00 +10°C° 0 mm 1 mps 717 mmHg 92%
    21:00 +9°C° 0 mm 1 mps 717 mmHg 90%
    22:00 +9°C° 0 mm 1 mps 717 mmHg 88%
    23:00 +9°C° 0 mm 1 mps 717 mmHg 87%

    25 October, Wednesday

    Time Temperature Precipitation Wind Pressure Humidity
    00:00 +9°C° 0 mm 1 mps 717 mmHg 86%
    01:00 +9°C° 0 mm 1 mps 716 mmHg 85%
    02:00 +9°C° 0 mm 1 mps 716 mmHg 84%
    03:00 +9°C° 0 mm 1 mps 716 mmHg 83%
    04:00 +8°C° 0 mm 1 mps 716 mmHg 83%
    05:00 +8°C° 0 mm 1 mps 716 mmHg 82%
    06:00 +8°C° 0 mm 1 mps 716 mmHg 82%
    07:00 +8°C° 0 mm 1 mps 716 mmHg 81%
    08:00 +10°C° 0 mm 1 mps 716 mmHg 79%
    09:00 +12°C° 0 mm 1 mps 717 mmHg 77%
    10:00 +14°C° 0 mm 0 mps 717 mmHg 74%
    11:00 +15°C° 0 mm 0 mps 717 mmHg 71%
    12:00 +16°C° 0 mm 0 mps 717 mmHg 67%
    13:00 +18°C° 0 mm 0 mps 717 mmHg 64%
    14:00 +17°C° 0 mm 0 mps 717 mmHg 67%
    15:00 +17°C° 0 mm 0 mps 717 mmHg 70%
    16:00 +16°C° 0 mm 0 mps 717 mmHg 73%
    17:00 +15°C° 0 mm 0 mps 717 mmHg 76%
    18:00 +14°C° 0 mm 1 mps 717 mmHg 79%
    19:00 +12°C° 0 mm 1 mps 717 mmHg 82%
    20:00 +12°C° 0 mm 1 mps 717 mmHg 80%
    21:00 +11°C° 0 mm 1 mps 717 mmHg 78%
    22:00 +11°C° 0 mm 1 mps 718 mmHg 76%
    23:00 +11°C° 0 mm 1 mps 718 mmHg 74%

    26 October, Thursday

    Time Temperature Precipitation Wind Pressure Humidity
    00:00 +11°C° 0 mm 1 mps 718 mmHg 72%
    01:00 +11°C° 0 mm 1 mps 718 mmHg 71%
    02:00 +11°C° 0 mm 1 mps 718 mmHg 70%
    03:00 +11°C° 0 mm 1 mps 718 mmHg 68%
    04:00 +10°C° 0 mm 1 mps 718 mmHg 67%
    05:00 +10°C° 0 mm 1 mps 718 mmHg 67%
    06:00 +10°C° 0 mm 1 mps 718 mmHg 66%
    07:00 +10°C° 0 mm 1 mps 718 mmHg 66%
    08:00 +13°C° 0 mm 1 mps 718 mmHg 65%
    09:00 +15°C° 0 mm 1 mps 719 mmHg 64%
    10:00 +18°C° 0 mm 1 mps 719 mmHg 63%
    11:00 +17°C° 0 mm 0 mps 719 mmHg 60%
    12:00 +19°C° 0 mm 0 mps 719 mmHg 58%
    13:00 +20°C° 0 mm 0 mps 719 mmHg 55%
    14:00 +20°C° 0 mm 0 mps 718 mmHg 59%
    15:00 +19°C° 0 mm 0 mps 718 mmHg 63%
    16:00 +18°C° 0 mm 0 mps 718 mmHg 66%
    17:00 +16°C° 0 mm 0 mps 718 mmHg 68%
    18:00 +16°C° 0 mm 1 mps 718 mmHg 70%
    19:00 +14°C° 0 mm 1 mps 718 mmHg 72%
    20:00 +13°C° 0 mm 1 mps 718 mmHg 71%
    21:00 +13°C° 0 mm 1 mps 718 mmHg 71%
    22:00 +13°C° 0 mm 2 mps 718 mmHg 70%
    23:00 +13°C° 0 mm 2 mps 718 mmHg 70%

    27 October, Friday

    Time Temperature Precipitation Wind Pressure Humidity
    00:00 +13°C° 0 mm 2 mps 717 mmHg 69%
    01:00 +13°C° 0 mm 2 mps 717 mmHg 69%
    02:00 +12°C° 0 mm 2 mps 717 mmHg 69%
    03:00 +12°C° 0 mm 2 mps 717 mmHg 70%
    04:00 +12°C° 0 mm 2 mps 716 mmHg 71%
    05:00 +12°C° 0 mm 2 mps 716 mmHg 72%
    06:00 +12°C° 0 mm 2 mps 716 mmHg 73%
    07:00 +10°C° 0 mm 2 mps 716 mmHg 74%
    08:00 +13°C° 0 mm 2 mps 716 mmHg 72%
    09:00 +15°C° 0 mm 2 mps 717 mmHg 71%
    10:00 +17°C° 0 mm 2 mps 717 mmHg 69%
    11:00 +18°C° 0 mm 2 mps 717 mmHg 66%
    12:00 +18°C° 0 mm 2 mps 717 mmHg 64%
    13:00 +19°C° 0 mm 2 mps 716 mmHg 62%
    14:00 +19°C° 0 mm 2 mps 716 mmHg 65%
    15:00 +18°C° 0 mm 2 mps 716 mmHg 68%
    16:00 +19°C° 0 mm 1 mps 715 mmHg 72%
    17:00 +16°C° 0 mm 1 mps 715 mmHg 78%
    18:00 +14°C° 0 mm 1 mps 715 mmHg 84%
    19:00 +12°C° 0 mm 1 mps 715 mmHg 90%
    20:00 +12°C° 0 mm 1 mps 715 mmHg 90%
    21:00 +11°C° 0 mm 1 mps 715 mmHg 90%
    22:00 +11°C° 0 mm 1 mps 715 mmHg 90%
    23:00 +11°C° 0 mm 1 mps 715 mmHg 90%
    Show more